Preview of NWS' New Version of Forecast
This preview is not operational and should not be used for support decisions.

Regional Weather Roundup (RWR)

Issued by National Weather Service (NWS)

                            
000
ASUS46 KPQR 250110
RWROR 

OREGON REGIONAL WEATHER ROUNDUP
NATIONAL WEATHER SERVICE PORTLAND OR
600 PM PDT MON JUN 24 2019

NOTE: "FAIR" INDICATES FEW OR NO CLOUDS BELOW 12,000 FEET WITH
NO SIGNIFICANT WEATHER AND/OR OBSTRUCTIONS TO VISIBILITY.

ORZ001>013-250200-
NORTHWEST OREGON

  
CITY           SKY/WX    TMP DP  RH WIND       PRES   REMARKS
ASTORIA        MOSUNNY   62  48  60 NW14      29.98F                  
TILLAMOOK      PTSUNNY   63  46  55 CALM      29.99F                  
PORTLAND       PTSUNNY   71  45  39 NW5       29.95F                  
VANCOUVER WA   MOSUNNY   70  44  39 N5        29.94F                  
SCAPPOOSE      MOSUNNY   69  45  41 N9        29.94F                  
HILLSBORO      MOSUNNY   71  48  43 NE7       29.94F                  
AURORA         MOSUNNY   73  44  35 NE7       29.95F                  
MCMINNVILLE    MOSUNNY   73  46  38 NE3       29.93F                  
SALEM          MOSUNNY   73  43  33 VRB3      29.92F                  
CORVALLIS      MOSUNNY   75  46  35 E8        29.93F                  
EUGENE         PTSUNNY   77  44  30 NW7       29.92F                  
$$

ORZ021-028-250200-
SOUTHWEST OREGON

  
CITY           SKY/WX    TMP DP  RH WIND       PRES   REMARKS
NORTH BEND     SUNNY     60  48  64 N14       30.02F                  
BROOKINGS      MOSUNNY   69  45  41 CALM      29.95S                  
ROSEBURG       MOSUNNY   79  42  26 N5        29.89F                  
SEXTON SUMMIT  MOSUNNY   68  45  43 VRB3      29.98F                  
GRANTS PASS    NOT AVBL                                               
MEDFORD        PTSUNNY   81  37  20 W15       29.85F                  
$$

ORZ014>016-041-250200-
COLUMBIA GORGE

  
CITY           SKY/WX    TMP DP  RH WIND       PRES   REMARKS
TROUTDALE      MOSUNNY   70  45  40 VRB5      29.95F                  
HOOD RIVER     PTSUNNY   70  34  26 NW9G23    29.90S                  
THE DALLES     MOSUNNY   75  34  22 NW17G29   29.85F                  
$$

ORZ029>031-041-044-049-050-061>064-502-503-505>511-250200-
EASTERN OREGON

  
CITY           SKY/WX    TMP DP  RH WIND       PRES   REMARKS
MADRAS         MOSUNNY   72  32  23 NW14      29.90F                  
REDMOND        MOSUNNY   74  34  23 NW15G25   29.90S                  
BEND           MOSUNNY   73  30  20 NW16      29.90F                  
PRINEVILLE     NOT AVBL                                               
KLAMATH FALLS  NOT AVBL                                               
LAKEVIEW       PTSUNNY   71  36  27 W13       29.93F                  
HERMISTON      MOSUNNY   81  24  12 NW9       29.82F                  
PENDLETON      SUNNY     76  30  18 W8        29.85F                  
JOHN DAY       MOSUNNY   73  34  24 W8        29.89F                  
MEACHAM        MOSUNNY   65  35  33 VRB3      29.93F                  
LA GRANDE      MOSUNNY   71  38  29 VRB5      29.88F                  
BAKER CITY     MOSUNNY   73  39  29 NW6       29.89F                  
BURNS          MOSUNNY   75  34  22 NW9       29.88F                  
ROME             N/A     79  28  15 NW5       29.83F                  
ONTARIO        MOSUNNY   80  38  22 CALM      29.82F                  
$$